Location: *
(51.0333°S, 178.4667°E)
Time: 23:09:43
(UTC+00:00)

SeaSat 1 - Pass Details

Date: 15 November 2019
Orbit: 745 x 747 km, 108.0° (Epoch: 11 December)

Event Time Altitude Azimuth Distance (km) Brightness Sun altitude
Rises 09:24:28 0° 153° (SSE) 3,232 6.1 -13.5°
Reaches altitude 10° 09:26:49 10° 158° (SSE) 2,301 5.4 -13.7°
Maximum altitude 09:31:36 47° 230° (SW) 1,003 3.6 -14.1°
Drops below altitude 10° 09:36:21 10° 303° (WNW) 2,279 5.0 -14.5°
Sets 09:38:40 0° 308° (NW) 3,197 5.7 -14.7°
